Terminal Aerodrome Forecast
Issued by NWS

Home | Current Version | Previous Version | Text Only | Print | Product List | Glossary On
Versions: 1 2 3 4 5 6 7 8 9 10 11 12 13 14
000
FTUS41 KBTV 291138
TAFMPV
TAF
KMPV 291138Z 2912/3012 VRB03KT P6SM SCT200
     FM291500 16004KT P6SM BKN150 BKN200
     FM292100 17007KT P6SM OVC100
     FM300100 17009KT P6SM OVC050
     FM300300 17009KT 6SM -SN OVC035
     FM300600 18006KT 1 1/2SM -SN BR OVC020=

USA.gov is the U.S. government's official web portal to all federal, state and local government web resources and services.